GFSNW_sfc_30mbdewp_162.txt.gz
Dewpoint
46 49 48 46 45 45 45 39 33 44 45 36 32 30 23 21 14 15 17 14 7 0 -5 -4 -3 -4 -3 8 8 8 5 9 9 5 8 9 8 7 8 9 9 12 16 18
44 49 48 47 46 46 43 36 36 43 43 29 28 24 23 19 17 12 8 7 6 5 3 2 4 5 7 9 11 14 15 10 7 7 8 10 9 9 8 10 12 12 13 14
41 45 48 47 46 46 43 36 31 37 40 31 22 22 20 18 20 17 13 8 7 9 4 8 5 7 8 14 14 18 17 15 12 12 10 8 6 6 6 8 19 21 19 21
42 42 48 47 46 45 43 34 30 30 30 32 27 21 18 16 19 20 16 13 14 10 11 9 8 8 9 14 17 17 18 14 13 14 14 13 12 11 9 7 8 7 9 9
42 42 48 47 46 44 41 35 29 25 20 26 28 26 21 17 17 20 18 15 13 13 12 11 9 13 15 16 22 21 23 22 21 19 18 16 15 14 14 11 7 5 6 8
40 41 46 47 46 43 39 34 29 25 23 27 28 28 21 16 19 17 17 17 16 15 16 25 27 28 27 28 26 23 22 21 21 20 18 19 21 21 18 16 16 16 13 20
40 41 43 47 46 43 36 32 28 25 22 20 26 20 22 16 16 16 17 18 18 19 31 31 28 26 25 24 25 25 23 22 23 22 22 18 19 16 17 19 21 23 22 25
40 42 40 46 45 44 40 32 33 30 25 22 22 23 21 20 19 20 18 21 22 26 33 28 23 22 23 23 24 24 26 25 25 23 21 18 16 15 15 26 26 32 21 22
40 42 41 46 45 44 42 37 37 34 25 22 20 23 21 21 22 22 22 24 26 26 35 31 21 17 16 17 21 24 24 27 27 22 19 10 15 26 31 27 22 26 25 24
39 42 43 46 45 43 42 40 41 37 31 24 24 22 23 23 22 21 23 26 28 30 32 27 22 20 20 18 17 19 23 25 24 23 21 16 15 18 29 24 24 30 29 27
41 42 43 45 45 43 42 41 42 37 35 30 31 29 26 26 23 22 26 32 35 34 30 29 25 22 21 19 20 21 25 23 22 22 19 19 21 22 31 31 31 31 30 32
41 42 43 45 44 43 42 40 42 41 38 31 35 34 34 32 34 34 36 34 35 34 32 29 27 25 26 23 22 23 25 23 19 20 23 34 35 32 34 31 30 31 31 32
41 45 45 45 43 43 41 40 41 39 35 32 31 30 32 34 33 36 33 32 34 37 37 36 34 29 27 24 24 23 28 29 27 31 26 25 29 33 34 30 30 30 31 32
44 45 45 44 43 43 42 39 42 37 34 29 27 29 29 30 30 30 34 34 36 37 37 35 33 29 30 28 28 28 30 35 30 28 29 29 29 31 29 30 30 29 30 31
44 45 44 44 44 44 42 41 43 41 33 31 31 33 33 34 34 32 32 33 33 35 34 34 31 30 30 30 30 29 28 27 27 29 32 31 30 33 31 31 29 29 30 29
44 44 44 44 43 42 39 37 41 43 40 32 25 29 30 32 34 34 34 34 34 35 36 33 36 34 33 30 27 26 26 31 35 30 37 37 37 34 31 31 30 29 29 28
44 43 43 43 42 41 36 35 41 41 39 34 28 23 31 35 35 36 38 38 37 36 35 33 34 35 36 32 28 28 29 29 34 36 35 33 33 32 32 31 30 30 29 28
44 44 43 43 43 41 38 41 42 42 38 36 27 24 33 37 35 34 39 36 36 35 33 34 34 36 35 30 33 32 31 33 31 31 32 32 32 32 31 31 29 28 27 26
44 44 44 41 40 36 38 42 43 43 37 30 28 25 25 37 34 35 34 36 30 35 31 33 36 34 30 32 30 28 29 30 31 30 31 29 30 30 30 30 28 27 27 27
41 39 35 31 37 42 40 39 34 35 35 34 29 30 29 35 33 31 31 32 31 28 32 36 33 28 28 31 30 29 30 31 30 29 30 29 29 30 30 29 29 28 27 26
37 35 32 39 42 38 35 30 29 30 28 31 30 26 28 37 30 31 34 32 33 29 32 29 26 25 31 29 29 30 31 31 30 30 30 29 29 29 30 29 29 28 27 27
36 37 38 37 34 32 28 27 28 29 22 31 29 32 34 34 36 31 33 31 30 25 29 25 21 28 28 29 30 30 31 32 31 30 29 30 29 29 30 30 29 28 27 28
37 35 32 31 30 25 24 22 23 26 33 33 33 31 34 34 35 32 32 27 24 25 25 20 28 29 29 30 31 31 31 33 31 31 33 34 32 32 31 31 31 30 28 28
33 29 25 26 25 24 24 30 29 33 34 34 34 31 31 33 31 30 27 30 25 21 20 21 29 28 29 30 33 32 32 31 32 32 31 30 30 30 31 30 29 27 26 27
30 30 25 25 29 29 31 32 33 35 37 34 32 33 33 30 26 30 25 23 20 19 23 28 28 29 29 30 32 32 32 31 31 31 30 29 29 29 29 29 30 28 27 26
31 27 27 28 29 29 30 32 31 36 37 36 35 28 28 25 26 22 22 17 17 26 27 28 28 28 29 30 31 31 31 31 31 31 30 29 29 29 29 30 29 28 27 26
26 29 31 31 31 30 31 32 33 37 34 30 29 23 23 25 21 20 26 25 26 28 28 28 28 27 28 29 30 30 31 31 30 30 30 30 30 29 28 28 29 28 28 28

GFSNW_sfc_30mbdewp_168.txt.gz
Dewpoint
44 43 42 47 49 48 45 40 31 41 46 34 32 29 27 22 19 19 16 17 15 16 13 11 8 12 9 11 11 9 15 13 9 6 11 13 11 10 11 9 8 14 14 10
40 42 42 42 48 47 43 35 34 46 42 27 29 28 27 24 23 20 15 14 12 13 8 6 8 8 14 9 15 15 15 14 9 6 8 15 11 11 12 13 15 10 8 8
39 41 40 41 42 47 40 34 30 35 41 35 29 27 25 26 23 19 22 16 14 13 9 10 9 10 13 18 18 20 17 16 12 5 11 16 12 13 14 15 13 11 13 13
39 40 40 42 42 47 40 35 32 35 30 32 33 31 28 23 24 23 20 17 16 15 13 10 11 11 10 17 20 17 14 10 14 16 16 14 13 13 15 18 18 15 16 17
38 39 40 41 42 46 39 33 33 36 33 32 33 32 31 27 26 23 19 17 17 17 15 14 10 19 20 16 25 19 21 12 14 13 19 21 21 22 22 21 20 19 19 18
37 38 40 41 43 44 39 39 40 37 31 30 30 29 30 28 26 28 29 26 21 21 20 24 25 28 28 28 27 26 25 22 22 18 22 21 18 19 21 21 20 20 20 22
37 39 40 41 42 42 39 39 39 33 29 30 28 28 28 27 28 26 30 31 28 28 32 29 28 27 27 27 26 28 25 23 23 21 21 15 17 23 23 22 22 24 25 28
38 39 40 41 42 42 43 42 39 35 29 31 28 27 27 27 29 27 29 33 33 32 30 23 21 20 20 20 23 24 26 25 21 18 16 15 17 18 17 19 18 26 29 30
38 39 40 41 41 42 43 42 43 38 32 30 30 28 28 26 24 23 23 32 35 33 30 24 18 16 19 17 22 26 22 25 21 24 19 16 18 23 24 28 22 32 31 28
39 39 40 41 41 42 41 41 43 39 32 35 36 31 26 27 26 24 25 26 27 32 27 23 21 19 21 17 15 19 23 25 22 21 20 23 25 24 30 20 17 34 32 30
39 39 40 40 40 41 41 40 43 39 35 36 37 37 32 27 27 26 26 27 30 30 24 26 24 22 22 19 18 20 22 23 24 24 23 19 25 30 27 26 36 34 33 33
39 39 40 39 38 39 42 37 43 43 38 36 38 38 37 36 36 29 33 26 33 31 27 29 27 24 27 26 23 27 25 27 26 26 24 27 35 33 35 38 35 34 33 33
39 38 39 38 38 39 40 40 42 41 36 35 35 31 35 36 36 38 30 35 37 36 36 33 31 29 32 26 28 30 32 35 32 31 30 32 32 35 35 37 38 36 32 32
38 38 39 38 38 37 40 41 43 40 36 30 28 34 32 33 34 36 36 36 38 38 37 33 32 30 33 29 31 27 28 31 32 32 33 34 32 33 35 36 38 33 33 32
39 39 38 37 39 40 41 42 43 42 37 28 28 31 29 32 33 31 33 34 34 34 33 32 29 32 31 30 31 28 29 27 26 25 30 32 33 34 37 35 36 31 32 30
38 38 35 37 40 41 41 34 42 44 43 31 22 30 29 30 34 32 32 32 33 32 33 33 32 34 28 25 27 27 27 29 32 29 33 36 38 39 39 37 34 31 32 31
38 37 37 38 41 41 34 34 39 42 40 30 23 23 29 37 34 34 34 35 33 32 31 31 31 32 32 30 26 27 28 28 29 30 34 36 36 36 35 38 36 34 32 30
39 39 41 40 41 41 39 42 42 40 36 34 26 24 30 36 34 32 39 36 36 36 33 35 32 33 32 27 26 28 30 32 34 33 37 35 33 31 32 32 32 31 30 29
38 40 41 42 39 36 39 41 40 39 33 28 27 23 24 35 34 35 36 36 30 36 32 32 33 30 27 28 29 33 33 31 31 31 31 31 30 30 31 31 30 30 29 28
42 39 35 32 39 43 39 36 35 34 34 33 28 28 26 34 33 31 31 33 30 27 29 34 30 27 30 31 34 32 32 32 32 30 30 31 30 30 30 30 29 29 28 27
35 33 33 40 40 36 33 28 27 30 27 30 29 28 29 35 29 29 32 29 30 25 28 29 27 27 31 31 32 32 33 33 32 33 32 32 31 31 30 30 30 29 28 27
35 37 38 37 34 30 25 24 25 25 23 28 27 28 29 34 36 29 31 28 30 25 32 28 26 28 31 31 32 33 33 33 32 31 30 30 30 31 32 31 30 29 28 26
34 32 30 27 28 21 20 18 23 23 27 30 32 30 32 34 35 30 30 27 25 31 27 25 26 29 30 31 33 32 30 30 30 29 29 29 29 30 30 30 29 28 26 25
28 25 23 23 21 21 22 23 24 28 33 33 34 32 31 33 30 30 25 27 29 23 19 22 26 28 28 30 32 31 30 29 29 29 28 27 28 28 28 27 27 27 26 25
28 25 20 23 24 29 30 30 31 31 33 34 31 31 31 30 28 28 28 24 22 22 21 25 27 28 28 29 30 30 29 28 28 29 27 27 26 27 27 26 26 26 25 25
28 28 24 27 25 26 28 28 28 33 33 32 32 30 27 26 27 25 23 20 18 23 25 27 28 27 28 29 29 29 29 29 28 28 28 28 28 26 26 26 25 24 25 24
28 27 29 27 27 28 30 30 31 35 32 29 31 26 22 29 25 25 25 22 24 25 26 27 28 27 28 29 29 29 29 28 28 28 27 28 28 27 26 24 26 26 25 24

GFSNW_sfc_30mbdewp_171.txt.gz
Dewpoint
44 42 42 46 50 48 44 40 32 38 45 33 31 28 28 27 21 20 17 18 17 15 14 11 13 12 19 16 12 10 14 12 7 6 11 14 11 9 11 9 8 15 15 11
40 41 41 41 47 47 42 36 35 45 41 26 27 29 28 28 23 22 17 15 16 16 10 10 12 14 15 17 12 12 13 13 8 5 6 16 12 12 15 14 16 9 7 10
39 39 41 39 41 48 40 36 30 35 40 34 27 26 26 26 27 23 22 20 20 15 11 11 9 11 17 16 17 19 18 15 8 4 5 16 12 13 13 13 11 10 11 12
37 39 40 40 42 46 40 36 31 33 28 31 33 28 27 24 23 24 23 13 15 17 14 14 11 12 12 18 17 19 16 10 13 17 16 16 13 13 14 15 16 14 13 12
37 38 41 41 42 43 40 33 32 35 33 34 32 32 31 27 28 26 22 21 18 17 16 14 12 19 19 15 24 19 21 10 13 10 15 17 18 20 22 22 22 22 21 20
36 38 40 42 42 43 40 39 39 36 30 30 31 29 30 28 29 30 28 27 28 21 23 23 22 25 26 24 25 25 25 18 18 11 19 21 18 20 20 20 20 21 19 21
37 37 39 41 42 42 39 39 37 33 26 30 29 29 30 30 30 28 28 30 28 29 33 29 28 27 28 28 27 28 25 24 24 21 23 17 19 20 21 22 22 23 24 24
36 37 39 40 41 41 41 40 38 35 27 30 30 30 29 29 30 29 29 32 32 32 33 30 27 20 21 21 24 25 27 25 20 17 18 18 16 11 16 18 18 22 24 28
38 39 39 41 41 41 40 40 42 36 31 29 31 28 29 27 27 26 28 31 35 33 31 29 22 18 17 16 20 25 25 26 22 21 16 8 17 21 26 25 19 27 31 28
39 40 39 40 41 41 40 38 42 39 32 35 36 33 31 29 27 24 25 27 29 34 29 25 23 20 21 17 15 13 23 24 22 21 17 18 23 24 27 23 16 31 33 30
39 39 39 40 41 41 40 36 40 38 33 34 37 36 34 32 28 25 27 29 30 29 25 26 25 23 21 19 17 16 18 20 22 23 21 17 26 26 23 25 32 34 34 33
38 39 39 40 40 40 40 35 41 42 36 35 40 39 39 37 35 29 31 31 29 28 26 28 27 22 25 23 17 27 20 26 27 24 23 28 31 32 33 35 34 33 34 34
38 38 39 39 39 39 39 37 39 39 35 34 35 35 36 39 38 38 30 34 34 34 35 31 30 26 31 24 24 29 33 37 31 31 33 31 32 34 34 35 36 36 37 36
37 38 39 39 39 39 38 37 38 37 35 29 30 36 35 36 38 38 36 36 39 38 36 32 31 29 33 29 30 30 30 30 29 31 32 31 33 34 34 34 36 38 36 33
37 37 38 38 38 38 38 38 40 40 34 30 30 32 32 34 34 35 36 36 36 35 32 31 30 32 30 30 30 27 27 26 29 25 28 31 31 32 34 36 36 36 37 33
37 38 38 38 38 38 39 33 39 41 42 32 26 29 29 30 33 32 32 33 33 33 32 32 31 33 29 25 24 24 26 30 31 29 32 32 31 34 38 39 38 37 33 32
38 38 39 38 38 39 34 31 38 42 41 31 24 22 28 36 34 33 32 34 32 30 30 29 29 32 31 27 22 23 25 26 27 30 30 31 35 35 36 35 37 36 35 32
37 38 39 38 37 39 37 37 42 42 37 34 23 22 28 35 32 32 38 34 34 34 29 33 30 31 30 24 24 24 23 25 29 31 34 37 37 33 31 32 32 32 31 31
37 38 38 38 38 34 35 42 42 42 35 27 26 19 22 34 33 35 36 36 29 35 31 31 32 30 26 26 27 28 31 33 32 32 31 31 30 30 31 31 30 31 31 30
38 37 32 29 35 42 42 38 33 33 34 31 24 27 24 32 31 32 31 33 28 24 28 33 30 26 28 29 30 31 32 32 32 30 29 30 30 30 30 30 30 30 30 29
36 31 31 39 40 35 32 28 27 28 25 28 28 27 25 34 27 28 31 29 29 24 26 27 24 26 31 32 32 33 33 32 32 32 32 31 31 31 32 31 31 32 32 28
36 37 38 37 33 30 25 24 25 23 22 27 26 26 28 31 35 29 30 27 28 23 31 27 24 28 32 33 32 31 32 31 31 30 29 29 29 30 30 32 30 30 29 28
34 31 30 27 27 21 20 17 20 21 25 27 29 27 30 34 34 30 29 25 25 31 27 25 26 29 30 31 33 31 30 30 30 29 28 28 28 29 28 29 29 29 27 25
27 25 21 20 20 20 21 20 22 25 31 30 31 30 30 31 29 28 25 26 28 23 21 21 26 28 29 30 32 30 29 28 28 28 27 26 27 27 26 26 26 27 26 24
26 22 17 22 23 25 28 29 29 30 32 34 32 31 31 29 28 28 27 24 21 22 21 25 27 28 28 29 29 29 29 28 27 27 26 26 26 26 25 25 25 25 25 24
28 27 24 26 25 25 27 28 28 29 31 33 32 29 27 26 27 24 23 22 18 21 25 26 28 28 28 29 29 29 28 28 27 27 27 27 26 25 25 25 24 24 24 23
26 25 26 25 25 24 27 28 28 34 32 27 30 25 24 28 25 24 25 22 23 25 26 27 28 27 28 29 29 29 28 28 27 27 28 28 27 27 25 24 26 25 24 24

GFSNW_sfc_30mbdewp_174.txt.gz
Dewpoint
43 42 44 49 50 48 43 39 32 38 43 32 33 29 28 28 24 25 21 17 15 15 16 14 12 17 18 19 19 19 16 13 7 7 12 15 11 11 12 11 18 16 16 11
41 40 41 43 50 47 42 36 36 44 40 25 26 27 28 28 27 23 20 19 20 18 15 12 14 12 17 17 18 23 22 15 8 4 6 16 14 15 14 16 16 9 8 11
39 39 40 39 46 47 42 37 31 35 40 33 26 25 26 26 28 27 26 22 20 17 15 13 10 11 16 20 17 22 22 17 14 10 8 15 10 11 14 12 10 9 9 9
38 38 40 39 42 46 41 36 32 32 29 32 31 27 26 25 24 25 25 20 18 15 13 14 14 13 13 17 23 23 19 16 19 17 14 17 14 12 14 13 13 11 9 10
37 38 40 41 42 46 40 33 32 35 33 34 32 31 30 26 27 24 23 21 23 25 19 15 11 16 16 16 22 19 21 14 16 14 15 17 14 15 17 19 19 19 19 20
36 37 39 42 40 43 39 39 38 34 30 30 30 28 30 29 30 29 28 27 26 26 27 29 28 23 21 21 22 22 24 18 15 13 16 18 17 21 19 20 24 22 19 20
37 36 38 41 42 42 39 39 37 32 26 30 28 28 29 29 30 28 29 30 29 29 34 32 31 28 28 29 28 29 23 22 21 17 21 17 19 20 20 20 21 22 21 22
37 38 38 39 42 42 40 39 38 34 27 28 28 29 30 30 30 29 30 31 31 34 34 31 27 26 23 23 25 27 28 23 17 18 19 18 18 16 14 16 18 21 21 23
37 38 38 39 41 40 40 39 40 36 30 27 28 26 28 28 27 28 29 30 35 34 33 29 22 19 24 19 20 26 24 27 22 23 17 12 11 19 26 24 18 23 29 29
37 38 40 40 40 40 40 37 40 36 30 29 33 32 30 31 29 27 25 29 32 34 30 26 23 22 22 18 16 14 19 24 23 22 20 20 20 19 27 16 16 28 33 31
37 38 40 40 40 40 40 36 39 36 32 33 36 35 34 35 34 29 29 30 29 31 26 26 25 25 21 20 18 17 16 16 20 22 21 16 28 25 21 23 31 33 33 34
37 38 40 40 40 40 39 34 38 40 34 30 36 37 39 38 36 35 33 31 29 29 27 27 27 25 24 22 18 23 16 20 22 23 23 32 34 33 34 35 33 33 34 34
37 37 38 39 39 39 39 35 37 38 32 29 31 28 33 37 38 39 34 34 33 34 35 31 29 26 28 23 24 25 30 33 30 29 31 29 31 32 35 35 34 34 36 37
37 37 38 39 39 39 39 37 37 36 32 26 26 32 33 36 39 40 39 37 39 38 36 33 31 29 32 28 27 29 29 32 29 29 29 30 32 33 34 31 33 34 37 37
36 36 37 38 39 38 39 37 37 38 32 26 30 34 33 35 36 37 38 38 38 36 33 32 30 31 31 30 30 27 28 26 25 22 25 29 30 32 30 29 32 35 37 36
37 36 36 38 38 37 35 28 34 38 38 31 27 31 29 32 34 33 36 37 36 33 31 30 30 32 30 24 24 22 25 27 28 25 30 32 33 31 30 33 36 38 38 35
36 36 38 38 38 37 31 27 33 40 38 31 27 27 28 35 33 33 32 34 32 31 30 30 29 30 33 28 23 23 24 23 23 28 31 28 26 29 36 36 34 34 33 34
36 37 37 38 39 37 35 35 38 42 34 33 25 24 29 35 31 30 36 32 33 32 28 30 29 29 31 24 23 24 23 23 23 23 25 27 29 35 34 31 32 31 31 32
37 36 37 37 36 33 33 38 37 40 35 28 28 22 21 34 32 33 35 34 29 34 31 29 30 27 24 24 24 24 25 28 29 33 32 32 31 31 31 30 30 30 30 30
37 36 32 29 34 38 38 37 33 33 32 30 26 26 27 30 31 29 30 32 29 24 27 32 28 24 25 26 29 29 30 32 32 30 29 30 30 30 31 31 31 30 30 30
35 31 29 36 39 35 33 29 27 28 26 29 27 26 27 33 27 27 31 28 28 23 23 26 22 23 27 32 32 33 33 32 32 32 31 30 30 30 29 29 32 31 32 33
34 35 37 38 33 30 26 24 26 25 21 27 26 27 28 31 33 28 29 25 27 21 30 26 22 28 32 33 31 31 31 30 30 29 28 28 28 29 29 29 31 31 30 28
36 33 30 29 28 21 20 18 20 21 24 27 28 26 28 32 33 28 26 22 22 30 26 22 24 29 30 31 32 30 30 29 29 28 27 27 27 27 26 26 26 27 27 26
30 27 22 21 20 19 20 20 21 24 28 28 28 26 28 30 28 27 24 24 27 20 20 18 26 28 29 30 31 30 28 28 27 26 26 25 25 26 24 24 25 26 26 25
29 23 16 20 22 24 26 27 28 30 32 32 31 31 30 28 26 26 24 23 20 20 20 24 27 29 29 29 29 29 28 27 27 26 26 25 25 25 24 23 23 24 24 24
28 25 23 25 24 24 26 27 27 30 31 33 32 28 26 25 27 24 22 21 19 20 25 26 28 28 29 29 29 29 28 28 27 27 26 26 25 25 24 24 24 24 24 23
25 24 25 23 23 22 24 26 27 30 30 25 27 24 23 27 25 24 27 22 21 25 26 27 27 27 28 29 28 28 28 27 27 28 28 27 26 26 26 25 25 25 24 24